Saint Paul Island, AK

9:05 AM AKDT on June 29, 2017 (GMT -0800)
Saint Paul Island

Weather History for PASN - November, 2013

Change the Weather History Date:

Thursday, November 7, 2013

  Actual Average Record
Temperature  
Mean Temperature 39 °F 34 °F  
Max Temperature 44 °F 38 °F 48 °F (1979)
Min Temperature 33 °F 31 °F 16 °F (1977)
Degree Days  
Heating Degree Days 26 31  
Month to date heating degree days 188 211  
Since 1 July heating degree days 2567 2672  
Cooling Degree Days 0 0  
Month to date cooling degree days 0 0  
Year to date cooling degree days 0 0  
Moisture  
Dew Point 36 °F    
Average Humidity 0    
Maximum Humidity 0    
Minimum Humidity 0    
Precipitation  
Precipitation 0.08 in 0.10 in 0.68 in (1949)
Month to date precipitation 1.29 0.70  
Year to date precipitation 21.88 19.23  
Snow  
Snow T in 0.20 in 1.50 in (1990)
Month to date snowfall T 1.4  
Since 1 July snowfall T 3.4  
Since 1 September snowfall 0.0 3.4  
Snow Depth 0.00 in    
Sea Level Pressure  
Sea Level Pressure 29.70 in    
Wind  
Wind Speed 20 mph (WSW)    
Max Wind Speed 40 mph    
Max Gust Speed 48 mph    
Visibility 6 miles    
Events Rain , Snow    
T = Trace of Precipitation, MM = Missing Value Source: NWS Daily Summary

Daily Weather History Graph

Daily Weather History Graph

Search for Another Location

Airport or City:

Trip Planner

Search our weather history database for the weather conditions in past years. The results will help you decide how hot, cold, wet, or windy it might be!

Date:

Astronomy

Nov. 07, 2013 Rise Set
Actual Time 9:46 AM AKST 6:21 PM AKST
Civil Twilight 9:04 AM AKST 7:04 PM AKST
Nautical Twilight 8:17 AM AKST 7:50 PM AKST
Astronomical Twilight 7:33 AM AKST 8:34 PM AKST
Moon 2:15 PM AKST (11/7) 10:42 PM AKST (11/7)
Length of Visible Light 9h 59m
Length of Day
8h 35m
Waxing Crescent, 24% of the Moon is Illuminated
Nov 7
Waxing Crescent
Nov 9
First Quarter
Nov 17
Full
Nov 25
Last Quarter
Dec 2
New

Hourly Weather History & Observations

Time (AKST) Temp. Windchill Dew Point Humidity Pressure Visibility Wind Dir Wind Speed Gust Speed Precip Events Conditions
12:02 AM 35.6 °F 22.5 °F 33.8 °F 93% 29.27 in 7.0 mi West 29.9 mph 47.2 mph 0.00 in Snow Light Snow
12:10 AM 35.6 °F 22.5 °F 33.8 °F 93% 29.28 in 7.0 mi West 29.9 mph 40.3 mph 0.00 in Snow Light Snow
12:20 AM 35.6 °F 22.5 °F 33.8 °F 93% 29.29 in 5.0 mi West 29.9 mph 44.9 mph 0.00 in Snow Light Snow
12:53 AM 33.1 °F 19.6 °F 32.0 °F 96% 29.32 in 3.0 mi West 27.6 mph 46.0 mph 0.01 in Snow Light Snow
1:11 AM 33.8 °F 20.5 °F 32.0 °F 93% 29.33 in 2.5 mi West 27.6 mph 47.2 mph 0.00 in Snow Light Snow
1:31 AM 33.8 °F 19.0 °F 33.8 °F 100% 29.35 in 5.0 mi West 35.7 mph 47.2 mph 0.02 in Snow Light Snow
1:53 AM 34.0 °F 20.5 °F 32.0 °F 92% 29.38 in 7.0 mi West 28.8 mph 43.7 mph 0.02 in   Overcast
2:08 AM 33.8 °F 20.5 °F 30.2 °F 87% 29.38 in 9.0 mi West 27.6 mph 42.6 mph 0.01 in   Overcast
2:32 AM 33.8 °F 21.9 °F 33.8 °F 100% 29.40 in 2.5 mi West 21.9 mph 39.1 mph 0.01 in Snow Light Snow
2:39 AM 33.8 °F 21.3 °F 33.8 °F 100% 29.41 in 6.0 mi West 24.2 mph 33.4 mph 0.01 in   Overcast
2:53 AM 35.1 °F 21.6 °F 28.9 °F 78% 29.42 in 10.0 mi West 31.1 mph 39.1 mph 0.01 in   Overcast
3:53 AM 35.1 °F 22.0 °F 30.9 °F 85% 29.48 in 9.0 mi West 28.8 mph 40.3 mph 0.00 in   Overcast
4:14 AM 33.8 °F 21.6 °F 30.2 °F 87% 29.49 in 4.0 mi West 23.0 mph 42.6 mph 0.00 in Snow Light Snow
4:46 AM 33.8 °F 20.8 °F 30.2 °F 87% 29.53 in 7.0 mi West 26.5 mph 41.4 mph 0.00 in Snow Light Snow
4:53 AM 35.1 °F 22.5 °F 30.9 °F 85% 29.53 in 8.0 mi West 26.5 mph 36.8 mph 0.00 in Snow Light Snow
5:53 AM 35.1 °F 22.7 °F 30.9 °F 85% 29.59 in 5.0 mi West 25.3 mph 36.8 mph 0.00 in Snow Light Snow
6:53 AM 36.0 °F 23.9 °F 27.0 °F 70% 29.63 in 10.0 mi West 25.3 mph 40.3 mph 0.01 in   Overcast
7:53 AM 37.9 °F 26.6 °F 30.9 °F 76% 29.67 in 9.0 mi West 25.3 mph 41.4 mph N/A   Overcast
8:53 AM 39.0 °F 29.9 °F 34.0 °F 82% 29.70 in 9.0 mi WSW 17.3 mph 29.9 mph N/A   Overcast
9:45 AM 39.2 °F 31.6 °F 35.6 °F 87% 29.72 in 8.0 mi WSW 12.7 mph - N/A   Overcast
9:53 AM 39.9 °F 32.1 °F 35.1 °F 83% 29.72 in 8.0 mi WSW 13.8 mph - N/A   Overcast
10:53 AM 39.9 °F 32.1 °F 39.0 °F 97% 29.74 in 4.0 mi WSW 13.8 mph - 0.02 in Rain Light Rain
11:53 AM 42.1 °F 33.3 °F 39.9 °F 92% 29.75 in 5.0 mi SW 19.6 mph - 0.01 in   Overcast
12:53 PM 43.0 °F 34.8 °F 39.9 °F 89% 29.78 in 9.0 mi WSW 18.4 mph 26.5 mph N/A   Mostly Cloudy
1:17 PM 44.6 °F 36.6 °F 41.0 °F 87% 29.78 in 9.0 mi WSW 19.6 mph 27.6 mph N/A   Mostly Cloudy
1:53 PM 43.0 °F 36.0 °F 39.9 °F 89% 29.80 in 8.0 mi WSW 13.8 mph - N/A   Mostly Cloudy
2:53 PM 42.1 °F 35.2 °F 39.9 °F 92% 29.83 in 8.0 mi WSW 12.7 mph - N/A   Mostly Cloudy
3:53 PM 42.1 °F 35.7 °F 39.9 °F 92% 29.85 in 8.0 mi WSW 11.5 mph - N/A   Mostly Cloudy
4:09 PM 42.8 °F 36.2 °F 39.2 °F 87% 29.85 in 7.0 mi WSW 12.7 mph - N/A   Overcast
4:40 PM 42.8 °F 36.6 °F 41.0 °F 93% 29.85 in 4.0 mi WSW 11.5 mph - N/A   Overcast
4:53 PM 43.0 °F 36.4 °F 41.0 °F 93% 29.87 in 5.0 mi WSW 12.7 mph - N/A   Overcast
5:00 PM 42.8 °F 35.4 °F 41.0 °F 93% 29.87 in 5.0 mi WSW 15.0 mph - N/A   Overcast
5:07 PM 42.8 °F 35.1 °F 41.0 °F 93% 29.87 in 5.0 mi WSW 16.1 mph - N/A   Overcast
5:16 PM 42.8 °F 35.4 °F 39.2 °F 87% 29.87 in 5.0 mi WSW 15.0 mph - N/A   Overcast
5:53 PM 42.1 °F 34.2 °F 39.9 °F 92% 29.88 in 5.0 mi WSW 16.1 mph - 0.00 in   Overcast
6:27 PM 42.8 °F 36.2 °F 39.2 °F 87% 29.89 in 4.0 mi WSW 12.7 mph - N/A   Overcast
6:53 PM 41.0 °F 32.5 °F 39.9 °F 96% 29.91 in 6.0 mi SW 17.3 mph - N/A   Overcast
7:09 PM 41.0 °F 33.5 °F 39.2 °F 93% 29.91 in 6.0 mi WSW 13.8 mph - N/A   Mostly Cloudy
7:20 PM 41.0 °F 33.9 °F 39.2 °F 93% 29.92 in 6.0 mi WSW 12.7 mph - N/A   Scattered Clouds
7:53 PM 41.0 °F 33.1 °F 39.0 °F 93% 29.94 in 6.0 mi SW 15.0 mph - N/A   Partly Cloudy
8:24 PM 41.0 °F 33.5 °F 39.2 °F 93% 29.94 in 6.0 mi SW 13.8 mph - N/A   Mostly Cloudy
8:53 PM 42.1 °F 34.5 °F 39.9 °F 92% 29.96 in 7.0 mi WSW 15.0 mph - N/A   Overcast
9:53 PM 41.0 °F 32.8 °F 39.0 °F 93% 29.98 in 7.0 mi SW 16.1 mph - N/A   Overcast
10:26 PM 42.8 °F 34.5 °F 39.2 °F 87% 29.97 in 5.0 mi SW 18.4 mph - N/A   Overcast
10:53 PM 41.0 °F 33.1 °F 39.9 °F 96% 29.97 in 5.0 mi SW 15.0 mph - N/A   Overcast
11:11 PM 42.8 °F 34.8 °F 39.2 °F 87% 29.98 in 5.0 mi SW 17.3 mph - N/A   Overcast
11:53 PM 43.0 °F 34.0 °F 41.0 °F 93% 29.98 in 5.0 mi SW 21.9 mph 31.1 mph N/A   Overcast